Terug naar catalogus

SYMPHONIE 1

ActiefCommunicatieGEO
NORAD 7578·PAYLOAD·🇩🇪 Germany

Gelanceerd Dec 19, 1974 vanaf Cape Canaveral Space Force Station

Loading…

TLE

VersSource: Space-Track

Epoch: Sep 14, 2026, 16:36 UTC

1 07578U 74101A   26257.69186583 -.00000017  00000-0  00000-0 0  9997
2 07578   4.3524 275.9056 0002973 326.1467 180.2782  0.99964082118095

Volg SYMPHONIE 1 in realtime met AllMySat

Download on the App Store